This is the latest recevied weather packets stored in our database for station/object KE6YLF. If no packets are shown the sender has not sent any weather packets the latest 10 day(s).
| Time | Temp. | Humidity | Pressure | Rain* | Wind** | Luminosity | Snow |
|---|---|---|---|---|---|---|---|
| 1788463990 | 36.11° C | 39% | 1075.8 hPa | 0 mm | - | - | - |
| 1788463683 | 35.56° C | 40% | 1075.8 hPa | 0 mm | - | - | - |
| 1788463378 | 35.56° C | 38% | 1075.9 hPa | 0 mm | - | - | - |
| 1788463074 | 36.11° C | 37% | 1076 hPa | 0 mm | - | - | - |
| 1788462770 | 35.56° C | 39% | 1076 hPa | 0 mm | - | - | - |
| 1788462476 | 35° C | 41% | 1076.3 hPa | 0 mm | - | - | - |
| 1788462164 | 36.11° C | 39% | 1076.3 hPa | 0 mm | - | - | - |
| 1788461859 | 35.56° C | 39% | 1076.3 hPa | 0 mm | - | - | - |
| 1788461558 | 35.56° C | 39% | 1076.4 hPa | 0 mm | - | - | - |
| 1788461255 | 35° C | 39% | 1076.5 hPa | 0 mm | - | - | - |
| 1788460951 | 35° C | 40% | 1076.7 hPa | 0 mm | - | - | - |
| 1788460646 | 35.56° C | 39% | 1076.9 hPa | 0 mm | - | - | - |
| 1788460340 | 35.56° C | 39% | 1076.6 hPa | 0 mm | - | - | - |
| 1788460039 | 35° C | 40% | 1076.9 hPa | 0 mm | - | - | - |
| 1788459735 | 35.56° C | 38% | 1077.1 hPa | 0 mm | - | - | - |
| 1788459433 | 35° C | 40% | 1077.1 hPa | 0 mm | - | - | - |
| 1788459128 | 35° C | 42% | 1077.4 hPa | 0 mm | - | - | - |
| 1788458824 | 35° C | 41% | 1077.1 hPa | 0 mm | - | - | - |
| 1788458518 | 34.44° C | 43% | 1077.2 hPa | 0 mm | - | - | - |
| 1788458217 | 33.89° C | 42% | 1077.3 hPa | 0 mm | - | - | - |
| 1788457911 | 34.44° C | 43% | 1077.4 hPa | 0 mm | - | - | - |
| 1788457611 | 33.33° C | 46% | 1077.3 hPa | 0 mm | - | - | - |
| 1788457306 | 33.33° C | 46% | 1077.3 hPa | 0 mm | - | - | - |
| 1788457001 | 33.33° C | 46% | 1077.4 hPa | 0 mm | - | - | - |
| 1788456697 | 33.33° C | 45% | 1077.4 hPa | 0 mm | - | - | - |
* Rain latest hour (hover to see other rain measurements)
** Current wind speed in m/s (hover to see current wind gust speed)